Weather History for Imperial, NE

Change the Weather History Date:

Monday, October 21, 2013

  Actual Average Record
Temperature  
Mean Temperature 45 °F 49 °F  
Max Temperature 60 °F 63 °F 95 °F (1921)
Min Temperature 30 °F 34 °F 17 °F (1936)
Degree Days  
Heating Degree Days 20 16  
Month to date heating degree days 296 259  
Cooling Degree Days 0 0  
Month to date cooling degree days 0 3  
Year to date cooling degree days 1166 960  
Moisture  
Dew Point 32 °F    
Average Humidity 62    
Maximum Humidity 92    
Minimum Humidity 32    
Precipitation  
Precipitation T in 0.04 in 1.07 in (2009)
Sea Level Pressure  
Sea Level Pressure 30.10 in    
Wind  
Wind Speed 10 mph (WNW)    
Max Wind Speed 28 mph    
Max Gust Speed 33 mph    
Visibility 10 miles    
Events Rain    
T = Trace of Precipitation, MM = Missing Value Source: NWS Daily Summary

Daily Weather History Graph

Daily Weather History Graph

Search for Another Location

Airport:

Trip Planner

Search our weather history database for the weather conditions in past years. The results will help you decide how hot, cold, wet, or windy it might be!

Date:

Astronomy

Oct. 21, 2013 Rise Set
Actual Time 7:04 AM MDT 5:57 PM MDT
Civil Twilight 6:36 AM MDT 6:24 PM MDT
Nautical Twilight 6:04 AM MDT 6:56 PM MDT
Astronomical Twilight 5:33 AM MDT 7:28 PM MDT
Moon 7:50 PM MDT 9:41 AM MDT
Length of Visible Light 11h 48m
Length of Day
10h 52m
Waning Gibbous, 92% of the Moon is Illuminated
Oct 21
Waning Gibbous
Oct 26
Last Quarter
Nov 3
New
Nov 9
First Quarter
Nov 17
Full

Hourly Weather History & Observations

Time (MDT) Temp. Windchill Dew Point Humidity Pressure Visibility Wind Dir Wind Speed Gust Speed Precip Events Conditions
12:53 AM 33.1 °F 27.7 °F 30.0 °F 89% 30.14 in 10.0 mi West 5.8 mph - N/A   Partly Cloudy
1:53 AM 30.0 °F 25.2 °F 27.0 °F 88% 30.14 in 10.0 mi West 4.6 mph - N/A   Clear
2:53 AM 30.9 °F 26.2 °F 28.9 °F 92% 30.15 in 10.0 mi West 4.6 mph - N/A   Mostly Cloudy
3:53 AM 30.9 °F 24.3 °F 28.9 °F 92% 30.14 in 10.0 mi WSW 6.9 mph - N/A   Partly Cloudy
4:53 AM 32.0 °F 26.4 °F 28.9 °F 88% 30.15 in 10.0 mi West 5.8 mph - N/A   Clear
5:53 AM 32.0 °F 24.8 °F 28.9 °F 88% 30.15 in 10.0 mi West 8.1 mph - N/A   Clear
6:53 AM 32.0 °F 24.2 °F 28.9 °F 88% 30.17 in 10.0 mi West 9.2 mph - N/A   Clear
7:53 AM 35.1 °F 27.9 °F 30.0 °F 82% 30.18 in 10.0 mi WNW 9.2 mph - N/A   Overcast
8:53 AM 39.9 °F 33.9 °F 33.1 °F 77% 30.17 in 10.0 mi WNW 9.2 mph - N/A   Mostly Cloudy
9:53 AM 46.9 °F - 35.1 °F 63% 30.17 in 10.0 mi NW 9.2 mph - N/A   Clear
10:53 AM 53.1 °F - 32.0 °F 45% 30.15 in 10.0 mi West 12.7 mph - N/A   Clear
11:53 AM 57.0 °F - 35.1 °F 44% 30.11 in 10.0 mi West 10.4 mph 19.6 mph N/A   Scattered Clouds
12:53 PM 57.0 °F - 30.0 °F 36% 30.09 in 10.0 mi NW 18.4 mph 25.3 mph N/A   Mostly Cloudy
1:53 PM 60.1 °F - 30.0 °F 32% 30.06 in 10.0 mi NW 19.6 mph 27.6 mph N/A   Mostly Cloudy
2:53 PM 60.1 °F - 30.9 °F 33% 30.05 in 10.0 mi NW 19.6 mph 28.8 mph N/A   Partly Cloudy
3:53 PM 59.0 °F - 30.9 °F 35% 30.04 in 10.0 mi NW 19.6 mph 33.4 mph N/A   Scattered Clouds
4:53 PM 57.0 °F - 33.1 °F 40% 30.04 in 10.0 mi NNW 17.3 mph 25.3 mph N/A   Overcast
5:53 PM 55.9 °F - 33.1 °F 42% 30.05 in 10.0 mi NW 9.2 mph - N/A   Overcast
6:53 PM 52.0 °F - 34.0 °F 50% 30.06 in 10.0 mi NW 8.1 mph - N/A   Partly Cloudy
7:53 PM 46.9 °F - 34.0 °F 61% 30.07 in 10.0 mi WSW 5.8 mph - N/A   Clear
8:53 PM 48.9 °F - 35.1 °F 59% 30.05 in 10.0 mi West 6.9 mph - N/A   Mostly Cloudy
9:53 PM 50.0 °F - 36.0 °F 59% 30.07 in 10.0 mi WNW 10.4 mph - 0.00 in Rain Light Rain
10:53 PM 48.0 °F - 37.0 °F 66% 30.04 in 10.0 mi WSW 8.1 mph - 0.00 in   Mostly Cloudy
11:53 PM 46.0 °F 41.4 °F 36.0 °F 68% 30.04 in 10.0 mi WSW 9.2 mph - N/A   Clear